When you browse on this site, cookies collect data to enhance your experience and personalize the content and advertising you see.
Visit our Privacy Policy to learn more. By continuing to use the site, you agree to this use of cookies and data.
  • In Hungary
  • List of Countries
  • For 7 days
  • Water Temperature
  • Satellite Maps
  • Weather Map
  • News
  • Weather Widgets
  • user-avatar
    Login

    Hourly Weather Wiktoria

    Today, 14 December, Friday

    Time Temperature Precipitation Wind Pressure Humidity
    00:00 +14°C° 0 mm 4 mps 737 mmHg 81%
    01:00 +13°C° 0 mm 3 mps 737 mmHg 81%
    02:00 +13°C° 0.1 mm 3 mps 738 mmHg 81%
    03:00 +13°C° 0.1 mm 3 mps 738 mmHg 81%
    04:00 +14°C° 0 mm 1 mps 738 mmHg 84%
    05:00 +15°C° 0.1 mm 2 mps 739 mmHg 80%
    06:00 +15°C° 0.1 mm 2 mps 739 mmHg 76%
    07:00 +16°C° 0.1 mm 3 mps 740 mmHg 72%
    08:00 +18°C° 0 mm 3 mps 740 mmHg 64%
    09:00 +20°C° 0 mm 3 mps 740 mmHg 57%
    10:00 +21°C° 0 mm 4 mps 740 mmHg 49%
    11:00 +22°C° 0 mm 4 mps 740 mmHg 46%
    12:00 +25°C° 0 mm 4 mps 740 mmHg 43%
    13:00 +26°C° 0 mm 4 mps 740 mmHg 41%
    14:00 +26°C° 0.3 mm 4 mps 740 mmHg 40%
    15:00 +26°C° 0.3 mm 3 mps 740 mmHg 40%
    16:00 +27°C° 0.3 mm 3 mps 739 mmHg 39%
    17:00 +26°C° 0.2 mm 2 mps 740 mmHg 42%
    18:00 +25°C° 0.2 mm 2 mps 740 mmHg 45%
    19:00 +24°C° 0.2 mm 1 mps 740 mmHg 48%
    20:00 +23°C° 0 mm 1 mps 740 mmHg 52%
    21:00 +21°C° 0 mm 2 mps 740 mmHg 56%
    22:00 +20°C° 0 mm 2 mps 741 mmHg 60%
    23:00 +19°C° 0 mm 2 mps 740 mmHg 65%

    Tomorrow, 15 December, Saturday

    Time Temperature Precipitation Wind Pressure Humidity
    00:00 +19°C° 0 mm 2 mps 740 mmHg 71%
    01:00 +18°C° 0 mm 2 mps 740 mmHg 76%
    02:00 +18°C° 0 mm 2 mps 740 mmHg 77%
    03:00 +18°C° 0 mm 2 mps 740 mmHg 78%
    04:00 +18°C° 0 mm 2 mps 740 mmHg 80%
    05:00 +19°C° 0 mm 3 mps 740 mmHg 76%
    06:00 +20°C° 0 mm 3 mps 741 mmHg 72%
    07:00 +21°C° 0 mm 3 mps 741 mmHg 68%
    08:00 +24°C° 0 mm 3 mps 741 mmHg 55%
    09:00 +26°C° 0 mm 4 mps 741 mmHg 42%
    10:00 +28°C° 0 mm 4 mps 741 mmHg 29%
    11:00 +29°C° 0 mm 5 mps 740 mmHg 27%
    12:00 +29°C° 0 mm 6 mps 740 mmHg 26%
    13:00 +30°C° 0 mm 7 mps 740 mmHg 24%
    14:00 +29°C° 0 mm 7 mps 740 mmHg 27%
    15:00 +28°C° 0 mm 6 mps 739 mmHg 30%
    16:00 +28°C° 0 mm 5 mps 739 mmHg 33%
    17:00 +27°C° 0 mm 4 mps 739 mmHg 37%
    18:00 +26°C° 0 mm 3 mps 739 mmHg 42%
    19:00 +24°C° 0 mm 2 mps 739 mmHg 46%
    20:00 +23°C° 0.2 mm 1 mps 740 mmHg 49%
    21:00 +22°C° 0.2 mm 1 mps 740 mmHg 51%
    22:00 +21°C° 0.2 mm 1 mps 740 mmHg 54%
    23:00 +21°C° 0 mm 1 mps 740 mmHg 56%

    Day after tomorrow, 16 December, Sunday

    Time Temperature Precipitation Wind Pressure Humidity
    00:00 +20°C° 0 mm 1 mps 740 mmHg 57%
    01:00 +19°C° 0 mm 2 mps 740 mmHg 59%
    02:00 +18°C° 0 mm 2 mps 740 mmHg 60%
    03:00 +18°C° 0 mm 2 mps 740 mmHg 62%
    04:00 +17°C° 0 mm 2 mps 741 mmHg 63%
    05:00 +18°C° 0 mm 2 mps 741 mmHg 62%
    06:00 +18°C° 0 mm 3 mps 742 mmHg 61%
    07:00 +19°C° 0 mm 3 mps 742 mmHg 60%
    08:00 +19°C° 0.5 mm 3 mps 742 mmHg 63%
    09:00 +19°C° 0.5 mm 3 mps 742 mmHg 67%
    10:00 +19°C° 0.5 mm 3 mps 743 mmHg 71%
    11:00 +20°C° 0.2 mm 4 mps 742 mmHg 65%
    12:00 +22°C° 0.2 mm 4 mps 742 mmHg 58%
    13:00 +25°C° 0.2 mm 5 mps 742 mmHg 52%
    14:00 +25°C° 0.2 mm 4 mps 742 mmHg 50%
    15:00 +26°C° 0.2 mm 4 mps 742 mmHg 47%
    16:00 +27°C° 0.2 mm 4 mps 742 mmHg 45%
    17:00 +26°C° 0.1 mm 3 mps 742 mmHg 48%
    18:00 +25°C° 0.1 mm 2 mps 742 mmHg 51%
    19:00 +25°C° 0.1 mm 1 mps 742 mmHg 54%
    20:00 +24°C° 0 mm 1 mps 743 mmHg 56%
    21:00 +23°C° 0 mm 1 mps 743 mmHg 59%
    22:00 +21°C° 0 mm 2 mps 743 mmHg 61%
    23:00 +20°C° 0 mm 2 mps 743 mmHg 64%

    17 December, Monday

    Time Temperature Precipitation Wind Pressure Humidity
    00:00 +20°C° 0 mm 1 mps 743 mmHg 66%
    01:00 +20°C° 0 mm 1 mps 743 mmHg 68%
    02:00 +19°C° 0 mm 1 mps 743 mmHg 70%
    03:00 +19°C° 0 mm 1 mps 743 mmHg 72%
    04:00 +18°C° 0 mm 1 mps 744 mmHg 75%
    05:00 +20°C° 0 mm 1 mps 744 mmHg 72%
    06:00 +21°C° 0 mm 1 mps 745 mmHg 69%
    07:00 +22°C° 0 mm 1 mps 745 mmHg 66%
    08:00 +23°C° 0 mm 2 mps 745 mmHg 60%
    09:00 +25°C° 0 mm 2 mps 746 mmHg 55%
    10:00 +27°C° 0 mm 3 mps 746 mmHg 50%
    11:00 +28°C° 0 mm 3 mps 746 mmHg 47%
    12:00 +29°C° 0 mm 4 mps 745 mmHg 44%
    13:00 +30°C° 0 mm 4 mps 745 mmHg 41%
    14:00 +30°C° 0 mm 4 mps 745 mmHg 41%
    15:00 +32°C° 0 mm 4 mps 745 mmHg 41%
    16:00 +32°C° 0 mm 4 mps 745 mmHg 40%
    17:00 +29°C° 0 mm 4 mps 745 mmHg 45%
    18:00 +28°C° 0 mm 4 mps 746 mmHg 50%
    19:00 +27°C° 0 mm 4 mps 746 mmHg 55%
    20:00 +25°C° 0 mm 4 mps 747 mmHg 60%
    21:00 +22°C° 0 mm 5 mps 747 mmHg 65%
    22:00 +20°C° 0 mm 5 mps 748 mmHg 70%
    23:00 +20°C° 0 mm 5 mps 748 mmHg 74%

    18 December, Tuesday

    Time Temperature Precipitation Wind Pressure Humidity
    00:00 +19°C° 0 mm 4 mps 748 mmHg 77%
    01:00 +18°C° 0 mm 4 mps 748 mmHg 80%
    02:00 +17°C° 0 mm 4 mps 748 mmHg 82%
    03:00 +17°C° 0 mm 3 mps 747 mmHg 84%
    04:00 +17°C° 0 mm 3 mps 747 mmHg 86%
    05:00 +17°C° 0 mm 3 mps 748 mmHg 82%
    06:00 +18°C° 0 mm 3 mps 748 mmHg 78%
    07:00 +19°C° 0 mm 3 mps 748 mmHg 74%
    08:00 +22°C° 0 mm 3 mps 748 mmHg 65%
    09:00 +26°C° 0 mm 2 mps 748 mmHg 56%
    10:00 +29°C° 0 mm 2 mps 748 mmHg 48%
    11:00 +30°C° 0 mm 2 mps 748 mmHg 41%
    12:00 +32°C° 0 mm 2 mps 748 mmHg 35%
    13:00 +34°C° 0 mm 2 mps 747 mmHg 29%
    14:00 +35°C° 0 mm 2 mps 747 mmHg 28%
    15:00 +35°C° 0 mm 3 mps 746 mmHg 27%
    16:00 +36°C° 0 mm 3 mps 746 mmHg 25%
    17:00 +34°C° 0 mm 3 mps 746 mmHg 31%
    18:00 +31°C° 0 mm 3 mps 747 mmHg 36%
    19:00 +30°C° 0 mm 3 mps 747 mmHg 42%
    20:00 +28°C° 0 mm 3 mps 747 mmHg 49%
    21:00 +26°C° 0 mm 4 mps 747 mmHg 56%
    22:00 +23°C° 0 mm 4 mps 747 mmHg 63%
    23:00 +24°C° 0 mm 3 mps 747 mmHg 66%

    19 December, Wednesday

    Time Temperature Precipitation Wind Pressure Humidity
    00:00 +22°C° 0 mm 3 mps 746 mmHg 69%
    01:00 +23°C° 0 mm 2 mps 746 mmHg 72%
    02:00 +23°C° 0 mm 2 mps 746 mmHg 72%
    03:00 +23°C° 0 mm 2 mps 746 mmHg 73%
    04:00 +21°C° 0 mm 2 mps 745 mmHg 74%
    05:00 +22°C° 0 mm 3 mps 745 mmHg 70%
    06:00 +24°C° 0 mm 3 mps 746 mmHg 65%
    07:00 +26°C° 0 mm 4 mps 746 mmHg 61%
    08:00 +27°C° 0 mm 4 mps 745 mmHg 58%
    09:00 +28°C° 0 mm 4 mps 745 mmHg 54%
    10:00 +30°C° 0 mm 4 mps 745 mmHg 51%
    11:00 +33°C° 0 mm 4 mps 744 mmHg 44%
    12:00 +36°C° 0 mm 5 mps 743 mmHg 37%
    13:00 +39°C° 0 mm 5 mps 742 mmHg 30%
    14:00 +40°C° 0 mm 5 mps 741 mmHg 27%
    15:00 +42°C° 0 mm 4 mps 740 mmHg 23%
    16:00 +43°C° 0 mm 4 mps 739 mmHg 19%
    17:00 +41°C° 0 mm 4 mps 739 mmHg 22%
    18:00 +38°C° 0 mm 3 mps 739 mmHg 25%
    19:00 +36°C° 0 mm 2 mps 739 mmHg 28%
    20:00 +35°C° 0 mm 3 mps 739 mmHg 32%
    21:00 +33°C° 0 mm 4 mps 740 mmHg 36%
    22:00 +30°C° 0 mm 5 mps 741 mmHg 40%
    23:00 +28°C° 0 mm 4 mps 741 mmHg 46%
    Show more